Terminal Aerodrome Forecast
Issued by NWS Shreveport, LA

Home | Current Version | Previous Version | Text Only | Print | Product List | Glossary On
Versions: 1 2 3 4 5 6 7 8 9 10 11 12 13 14 15 16 17 18
138
FTUS44 KSHV 071332 AAA
TAFGGG
TAF AMD
KGGG 071332Z 0714/0812 10003KT 5SM -RA BR BKN005 OVC016
     FM071600 12004KT P6SM OVC015
     FM071800 13005KT P6SM BKN015 OVC030
     FM080100 03005KT P6SM VCSH OVC010
     FM080600 01008KT P6SM OVC004=

USA.gov is the U.S. government's official web portal to all federal, state and local government web resources and services.